Bennington, VT

6:15 PM EDT on September 24, 2017 (GMT -0400)
Morse State

Weather History for KDDH - July, 2013

Change the Weather History Date:

Tuesday, July 16, 2013

  Actual Average Record
Temperature  
Mean Temperature 76 °F 68 °F  
Max Temperature 88 °F 80 °F 88 °F (2013)
Min Temperature 63 °F 57 °F 43 °F (2015)
Degree Days  
Heating Degree Days 0 1  
Month to date heating degree days 0 16  
Since 1 June heating degree days 100 113  
Since 1 July heating degree days 0 16  
Cooling Degree Days 11 4  
Month to date cooling degree days 172 63  
Year to date cooling degree days 302 135  
Since 1 June cooling degree days 270 121  
Growing Degree Days 24 (Base 50)    
Moisture  
Dew Point 65 °F    
Average Humidity 71    
Maximum Humidity 93    
Minimum Humidity 48    
Precipitation  
Precipitation 0.00 in 0.12 in 2.40 in (2000)
Month to date precipitation 2.31 2.20  
Year to date precipitation 24.07 21.40  
Sea Level Pressure  
Sea Level Pressure 30.21 in    
Wind  
Wind Speed 2 mph (NNW)    
Max Wind Speed 12 mph    
Max Gust Speed 16 mph    
Visibility 7 miles    
Events      
T = Trace of Precipitation, MM = Missing Value Source: NWS Daily Summary

Daily Weather History Graph

Daily Weather History Graph

Search for Another Location

Airport or City:

Trip Planner

Search our weather history database for the weather conditions in past years. The results will help you decide how hot, cold, wet, or windy it might be!

Date:

Astronomy

Jul. 16, 2013 Rise Set
Actual Time 5:28 AM EDT 8:28 PM EDT
Civil Twilight 4:54 AM EDT 9:02 PM EDT
Nautical Twilight 4:11 AM EDT 9:45 PM EDT
Astronomical Twilight 3:20 AM EDT 10:36 PM EDT
Moon 2:03 PM EDT (7/16) 12:01 AM EDT (7/16)
Length of Visible Light 16h 07m
Length of Day
14h 59m
First Quarter, 56% of the Moon is Illuminated
Jul 16
First Quarter
Jul 22
Full
Jul 29
Last Quarter
Aug 6
New
Aug 14
First Quarter

Hourly Weather History & Observations

Time (EDT) Temp. Heat Index Dew Point Humidity Pressure Visibility Wind Dir Wind Speed Gust Speed Precip Events Conditions
12:54 AM 69.1 °F - 66.0 °F 90% 30.19 in 9.0 mi Calm Calm - N/A   Clear
1:54 AM 66.9 °F - 64.9 °F 93% 30.19 in 9.0 mi Calm Calm - N/A   Clear
2:50 AM 64.4 °F - 64.4 °F 100% 30.21 in 1.8 mi Calm Calm - N/A   Clear
2:54 AM 66.0 °F - 64.0 °F 93% 30.19 in 2.0 mi Calm Calm - N/A   Clear
3:04 AM 66.2 °F - 64.4 °F 94% 30.21 in 5.0 mi Calm Calm - N/A   Clear
3:48 AM 64.4 °F - 62.6 °F 94% 30.21 in 1.8 mi Calm Calm - N/A   Clear
3:54 AM 64.9 °F - 63.0 °F 93% 30.20 in 1.8 mi Calm Calm - N/A   Clear
3:57 AM 64.4 °F - 62.6 °F 94% 30.21 in 3.0 mi Calm Calm - N/A   Clear
4:54 AM 64.0 °F - 62.1 °F 93% 30.20 in 5.0 mi Calm Calm - N/A   Clear
5:32 AM 62.6 °F - 60.8 °F 94% 30.22 in 1.8 mi Calm Calm - N/A   Clear
5:54 AM 64.0 °F - 62.1 °F 93% 30.22 in 1.8 mi Calm Calm - N/A   Clear
5:58 AM 64.4 °F - 62.6 °F 94% 30.23 in 3.0 mi Calm Calm - N/A   Clear
6:15 AM 64.4 °F - 62.6 °F 94% 30.23 in 2.0 mi Calm Calm - N/A   Clear
6:26 AM 64.4 °F - 62.6 °F 94% 30.23 in 4.0 mi Calm Calm - N/A   Clear
6:54 AM 66.9 °F - 64.0 °F 90% 30.23 in 4.0 mi Calm Calm - N/A   Clear
7:54 AM 73.0 °F - 66.0 °F 79% 30.24 in 10.0 mi Calm Calm - N/A   Clear
8:54 AM 77.0 °F - 66.9 °F 71% 30.24 in 10.0 mi Calm Calm - N/A   Clear
9:54 AM 80.1 °F 82.3 °F 66.9 °F 64% 30.23 in 10.0 mi Calm Calm - N/A   Clear
10:54 AM 82.0 °F 84.9 °F 68.0 °F 62% 30.22 in 10.0 mi NW 4.6 mph - N/A   Clear
11:54 AM 84.9 °F 87.6 °F 66.9 °F 55% 30.22 in 10.0 mi Variable 4.6 mph - N/A   Clear
12:54 PM 86.0 °F 88.2 °F 66.0 °F 51% 30.21 in 10.0 mi NNW 6.9 mph - N/A   Clear
1:54 PM 87.1 °F 89.2 °F 66.0 °F 49% 30.19 in 10.0 mi NW 5.8 mph - N/A   Clear
2:54 PM 86.0 °F 87.6 °F 64.9 °F 49% 30.19 in 10.0 mi NNW 6.9 mph - N/A   Mostly Cloudy
3:54 PM 87.1 °F 89.2 °F 66.0 °F 49% 30.18 in 10.0 mi NNW 8.1 mph - N/A   Partly Cloudy
4:54 PM 87.1 °F 89.2 °F 66.0 °F 49% 30.18 in 10.0 mi NW 3.5 mph - N/A   Clear
5:54 PM 87.1 °F 89.2 °F 66.0 °F 49% 30.17 in 10.0 mi NNW 6.9 mph - N/A   Clear
6:54 PM 84.9 °F 88.8 °F 69.1 °F 59% 30.17 in 10.0 mi Calm Calm - N/A   Clear
7:54 PM 79.0 °F - 72.0 °F 79% 30.18 in 10.0 mi Calm Calm - N/A   Clear
8:54 PM 73.9 °F - 71.1 °F 91% 30.19 in 9.0 mi SE 3.5 mph - N/A   Clear
9:54 PM 73.0 °F - 69.1 °F 87% 30.19 in 10.0 mi Calm Calm - N/A   Clear
10:54 PM 71.1 °F - 68.0 °F 90% 30.20 in 10.0 mi Calm Calm - N/A   Clear
11:54 PM 70.0 °F - 66.9 °F 90% 30.20 in 10.0 mi Calm Calm - N/A   Clear